Weather History for KHBG - November, 2011

Change the Weather History Date:

Wednesday, November 23, 2011

  Actual Average Record
Temperature  
Mean Temperature 60 °F 55 °F  
Max Temperature 69 °F 67 °F 82 °F (1973)
Min Temperature 50 °F 43 °F 23 °F (1956)
Degree Days  
Heating Degree Days 5 10  
Month to date heating degree days 153 172  
Since 1 July heating degree days 271 247  
Cooling Degree Days 0 1  
Month to date cooling degree days 50 27  
Year to date cooling degree days 2764 2389  
Growing Degree Days 10 (Base 50)    
Moisture  
Dew Point 52 °F    
Average Humidity 69    
Maximum Humidity 90    
Minimum Humidity 47    
Precipitation  
Precipitation 0.00 in 0.14 in 1.61 in (1963)
Month to date precipitation 1.91 3.12  
Year to date precipitation 51.40 53.11  
Sea Level Pressure  
Sea Level Pressure 30.17 in    
Wind  
Wind Speed 7 mph (North)    
Max Wind Speed 16 mph    
Max Gust Speed 22 mph    
Visibility 10 miles    
Events      
T = Trace of Precipitation, MM = Missing Value Source: NWS Daily Summary

Daily Weather History Graph

Daily Weather History Graph

Search for Another Location

Airport or City:

Trip Planner

Search our weather history database for the weather conditions in past years. The results will help you decide how hot, cold, wet, or windy it might be!

Date:

Astronomy

Nov. 23, 2011 Rise Set
Actual Time 6:31 AM CST 4:55 PM CST
Civil Twilight 6:05 AM CST 5:21 PM CST
Nautical Twilight 5:35 AM CST 5:51 PM CST
Astronomical Twilight 5:06 AM CST 6:20 PM CST
Moon 4:38 AM CST (11/23) 3:35 PM CST (11/23)
Length of Visible Light 11h 16m
Length of Day
10h 24m
Waning Crescent, 3% of the Moon is Illuminated
Nov 23
Waning Crescent
Nov 25
New
Dec 2
First Quarter
Dec 10
Full
Dec 17
Last Quarter

Hourly Weather History & Observations

Time (CST) Temp. Dew Point Humidity Pressure Visibility Wind Dir Wind Speed Gust Speed Precip Events Conditions
12:08 AM 64.4 °F 62.6 °F 94% 30.07 in 10.0 mi NNW 4.6 mph - N/A   Overcast
12:45 AM 64.4 °F 62.6 °F 94% 30.07 in 10.0 mi NW 4.6 mph - N/A   Overcast
12:53 AM 64.9 °F 61.0 °F 87% 30.07 in 10.0 mi NW 6.9 mph - N/A   Overcast
1:15 AM 64.4 °F 60.8 °F 88% 30.08 in 10.0 mi NW 5.8 mph - N/A   Overcast
1:53 AM 64.0 °F 60.1 °F 87% 30.07 in 10.0 mi Calm Calm - N/A   Overcast
2:01 AM 64.4 °F 60.8 °F 88% 30.08 in 10.0 mi NW 5.8 mph - N/A   Overcast
2:28 AM 62.6 °F 60.8 °F 94% 30.08 in 10.0 mi NW 5.8 mph - N/A   Overcast
2:53 AM 63.0 °F 59.0 °F 87% 30.08 in 10.0 mi NW 6.9 mph - N/A   Overcast
3:53 AM 62.1 °F 55.9 °F 80% 30.09 in 10.0 mi NNW 10.4 mph 18.4 mph N/A   Overcast
4:43 AM 59.0 °F 51.8 °F 77% 30.12 in 10.0 mi NNW 11.5 mph 19.6 mph N/A   Scattered Clouds
6:11 AM 55.4 °F 50.0 °F 82% 30.16 in 10.0 mi North 4.6 mph - N/A   Mostly Cloudy
6:53 AM 55.0 °F 48.9 °F 80% 30.17 in 10.0 mi North 10.4 mph 19.6 mph N/A   Overcast
7:00 AM 55.4 °F 48.2 °F 77% 30.18 in 10.0 mi North 11.5 mph - N/A   Overcast
7:53 AM 55.9 °F 48.9 °F 77% 30.19 in 10.0 mi North 13.8 mph 18.4 mph N/A   Overcast
8:19 AM 57.2 °F 48.2 °F 72% 30.20 in 10.0 mi North 11.5 mph - N/A   Mostly Cloudy
8:36 AM 57.2 °F 48.2 °F 72% 30.21 in 10.0 mi North 10.4 mph 18.4 mph N/A   Scattered Clouds
8:53 AM 57.9 °F 48.9 °F 72% 30.20 in 10.0 mi NNE 8.1 mph - N/A   Mostly Cloudy
9:06 AM 59.0 °F 48.2 °F 67% 30.21 in 10.0 mi NNE 13.8 mph - N/A   Scattered Clouds
9:53 AM 61.0 °F 48.9 °F 64% 30.21 in 10.0 mi NNE 10.4 mph - N/A   Clear
10:53 AM 64.0 °F 48.9 °F 58% 30.19 in 10.0 mi North 9.2 mph 17.3 mph N/A   Clear
11:53 AM 66.9 °F 48.9 °F 52% 30.17 in 10.0 mi North 8.1 mph - N/A   Clear
12:53 PM 66.9 °F 48.9 °F 52% 30.15 in 10.0 mi North 11.5 mph - N/A   Clear
1:53 PM 68.0 °F 48.9 °F 50% 30.15 in 10.0 mi North 8.1 mph - N/A   Clear
2:53 PM 69.1 °F 48.9 °F 49% 30.14 in 10.0 mi North 9.2 mph - N/A   Clear
3:53 PM 66.9 °F 48.9 °F 52% 30.16 in 10.0 mi NE 9.2 mph - N/A   Clear
4:53 PM 63.0 °F 48.9 °F 60% 30.19 in 10.0 mi NNE 8.1 mph - N/A   Clear
5:53 PM 59.0 °F 48.0 °F 67% 30.21 in 10.0 mi NNE 5.8 mph - N/A   Clear
6:53 PM 57.0 °F 48.9 °F 74% 30.23 in 10.0 mi North 3.5 mph - N/A   Clear
7:53 PM 54.0 °F 48.0 °F 80% 30.26 in 10.0 mi NNE 3.5 mph - N/A   Clear
8:53 PM 53.1 °F 46.9 °F 80% 30.27 in 10.0 mi NE 4.6 mph - N/A   Clear
9:53 PM 52.0 °F 46.0 °F 80% 30.28 in 10.0 mi Calm Calm - N/A   Clear
10:53 PM 51.1 °F 45.0 °F 80% 30.27 in 10.0 mi North 3.5 mph - N/A   Clear
11:53 PM 50.0 °F 45.0 °F 83% 30.27 in 10.0 mi Calm Calm - N/A   Clear